星链-33854 (STARLINK-33854)

导读 | 豆包AI

STARLINK-33854是美国SpaceX公司星链(Starlink)星座的第二代低轨通信卫星,于2025年4月25日发射入轨。作为星链第二代组网卫星,它配备增强型相控阵天线与激光星间链路,支持千兆级高速宽带接入,可为全球偏远地区提供低延迟互联网服务。卫星采用氪离子推进系统,具备自主避碰能力,退役后将主动离轨在大气层完全烧毁,减少空间碎片影响,是星链实现全球覆盖的重要组成部分。

基本信息
目录编号:
63635
目录名称:
STARLINK-33854
国际标识:
2025-083B
轨道中心:
EARTH
卫星名称:
星链-33854
卫星全名:
星链-33854 (STARLINK-33854)
卫星状态:
在轨 (已飞行323 天)
发射日期:
2025-04-25 UTC
国别 :
美国 (US)
星等 :
--
轨道信息
数据来源 国际轨道数据
星历时间: 2026-03-14T18:13:00+0800
11小时前
查看轨道信息
半长轴: 6861.099km
偏心率: 0.0001986
轨道倾角: 43.005°
近地点辐角 276.424°
升交点赤经 338.260°
平近点角 83.638°
近地点: 481.599km
远地点: 484.325km
周期: 94.265分钟
每日圈数: 15.276093
详细信息
固有亮度:
5
最大亮度:
2.5
卫星平台:
Starlink V1.0
覆盖范围:
全球
运营商:
太空探索技术公司
运营商所在国:
美国
制造商(研发单位):
太空探索技术公司
制造商所在国:
美国
使用方式:
暂无
卫星简介
Starlink 计划是 SpaceX 推出的全球卫星互联网项目,通过发射低轨道卫星,为全球尤其是偏远地区提供高速、低延迟的互联网服务。自 2019 年起,Starlink 已部署数千颗卫星,旨在缩小全球数字鸿沟,推动互联网普及。该项目还为军事、航空等行业提供通信支持,带来广泛经济效益。
2D轨道图
3D轨道图
轨道高度分析图
轨道倾角分析图
轨道综合分析图
查看轨道综合分析图